Location: Bernadets
(43.3537°N, 0.3167°E)
Time: 07:47:13
(UTC+00:00)

Cosmos 614 Rocket - Pass Details

Date: 24 October 2021
Orbit: 733 x 763 km, 74.1° (Epoch: 02 December)

Event Time Altitude Azimuth Distance (km) Brightness Sun altitude
Rises 18:39:31 0° 340° (NNW) 3,172 7.5 -18.5°
Reaches altitude 10° 18:41:52 10° 341° (NNW) 2,248 6.7 -18.9°
Maximum altitude 18:46:58 85° 69° (ENE) 747 3.8 -19.8°
Enters shadow 18:51:33 13° 159° (SSE) 2,047 6.0 -20.7°
